Погода в Нерюнгри

Погода в Нерюнгри : погода сейчас, прогноз погоды и архив. Всё, что Вы хотите узнать о погоде в Нерюнгри!

Хотите узнать прогноз погоды в Нерюнгри? Тогда Вам сюда: Погода в Нерюнгри

Поиск расширенной информации на нашем сайте:

Другие новости

Новости СМИ2

Главная страница сайта

Новости сайта

03.07.2017

Напоминаем, что на нашем специализированном сайте Метеоцентр.Азия вы можете получить высокодетализированные автоматические прогнозы погоды по пунктам России, СНГ и мира в авиационном формате (включающие направление и скорость ветра, видимость, явления погоды, количество и форму облачности, нижнюю и верхнюю границу облачности).


Погода в Нерюнгри - сегодня

Время (UTC), дата Ветер
(°,м/с) 
Видим.   Явления Облачность Т
(°С)
Тd
(°С)
f(%) Тe
(°С)
Pmin
(гПа)
dP
(гПа)
Po
(мм)
O2
(г/м3)
Тmin Tmax R s Состояние
почвы
15 10.10.18 270 (З) 20000 м    10/4 600 м кучево-дожд., средняя 
[Cb cap|Ac und]
-0.3 -5.7 67 -2  1020.4  -0.4  688  278           
18 10.10.18 280 (З) 20000 м    10/5 600 м кучево-дожд., средняя 
[Cb cap|Ac und]
-0.4 -4.8 72 -1  1020.3  -0.1  688  278           
21 10.10.18 220 (ЮЗ) 20000 м    9/4 600 м кучево-дожд., средняя 
[Cb cap|Ac trans]
-1.5 -4.5 80 -2  1020.6  -0.1  688  279           
00 11.10.18 180 (Ю) 20000 м    8/3 1000 м средняя 
[Sc|Ac trans]
-1.2 -4.5 78 -4  1019.8  -0.6  687  279  -1.8      12  равномерный
мокрый или
старый снег
100% 
03 11.10.18 180 (Ю) 20000 м    10/0 средняя, верхняя 
[Ac trans|Ci fib]
+2.8 -4.5 59 +1  1017  -1.1  687  274           
06 11.10.18 190 (Ю) 20000 м    10/0 средняя, верхняя 
[Ac trans|Ci fib]
+4.5 -5.5 48 +3  1014.7  -1.5  686  272           
09 11.10.18 190 (Ю) 20000 м    8/3 1000 м верхняя 
[Sc|Ci fib]
+3.2 -4.7 56 +2  1014.9  -0.4  685  273           
12 11.10.18 190 (Ю) 20000 м    10/3 1000 м верхняя 
[Sc diur, vesp|Ci fib]
+2 -4.1 64 +1  1015.3  685  274    +5.6       
15 11.10.18 180 (Ю) 20000 м    10/4 1000 м средняя, верхняя 
[Sc|Ac trans|Ci fib]
+1.6 -3.9 67 -1  1014.9  -0.5  685  275           
18 11.10.18 190 (Ю) 20000 м    10/5 1000 м средняя, верхняя 
[Sc|Ac trans|Ci fib]
+1.5 -3.3 70 1014.8  -0.1  685  275           
21 11.10.18 190 (Ю) 20000 м    10/5 1000 м средняя, верхняя 
[Sc|Ac trans|Ci fib]
+0.5 -4.2 71 -2  1015.1  685  276           
00 12.10.18 170 (Ю) 20000 м    10/4 600 м кучево-дожд., верхняя 
[Cb cap|Ci fib]
+0.3 -4 73 -2  1015.3  0.2  685  276  -0.6      10  равномерный
мокрый или
старый снег
100% 
03 12.10.18 180 (Ю) 20000 м    10/0 средняя, верхняя 
[Ac trans|Ci fib]
+6.6 -2.1 54 +6  1012.9  -0.2  685  269           
06 12.10.18 160 (Ю) 20000 м    10/3 600 м кучево-дожд., средняя, верхняя 
[Cb cap|Ac trans|Ci fib]
+6.3 -2.9 52 +5  1011.7  -1  684  270           
15 12.10.18 330 (СЗ) 20000 м  {ливн. осадки}  10/5 300 м кучево-дожд., средняя 
[Cb cap|Ac und]
+0.7 -0.1 94 1017.4  0.8  686  276           
18 12.10.18 330 (СЗ) 20000 м  {ливн. осадки}  10/4 600 м кучево-дожд., средняя 
[Cb cap|Ac und]
+0.3 -0.8 92 -2  1018.7  687  276           
21 12.10.18 330 (СЗ) 20000 м    10/6 420 м кучево-дожд., средняя 
[Cb cap|Ac und]
-0.3 -1.2 94 -2  1019.7  0.7  688  277           
21 13.10.18 330 (СЗ) 20000 м    10/6 720 м кучево-дожд., средняя 
[Cb cap|Ac und]
-4.8 -7.2 83 -8  1025.7  690  284           
00 14.10.18 360 (С) 20000 м    10/5 600 м кучево-дожд., средняя, верхняя 
[Cb cap|Ac trans|Ci fib]
-4.7 -8.7 74 -9  1027.1  1.3  691  284  -5    0.2  10  равномерный
мокрый или
старый снег
100% 
15 14.10.18 010 (С) 20000 м  {ливн. осадки}  8/4 600 м кучево-дожд., средняя 
[Cb cap|Ac trans]
-6.1 -9.6 76 -9  1032  0.5  694  287           
18 14.10.18 350 (С) 20000 м  {ливн. осадки}  4/0 средняя 
[Ac trans]
-7.3 -10.3 79 -10  1032.4  694  288           
21 14.10.18 360 (С) 20000 м    8/3 600 м кучево-дожд., средняя 
[Cb cap|Ac trans]
-8.6 -10.5 86 -11  1033.7  0.6  695  290           
03 15.10.18 360 (С) 20000 м  в посл. час ливневой снег  5/5 600 м кучево-дожд. 
[Cb cap]
-5.4 -10 70 -8  1032.7  -0.3  695  287           
06 15.10.18 350 (С) 20000 м  {ливн. осадки}  ясно 
-0.5 -10.3 47 -2  1029.3  -1.2  694  281           
09 15.10.18 330 (СЗ) 20000 м    1/0 верхняя 
[Ci fib]
-2.6 -8.7 63 -4  1030.9  0.5  694  283           
Время (UTC), дата Ветер
(°,м/с) 
Видим.   Явления Облачность Т
(°С)
Тd
(°С)
f(%) Тe
(°С)
Pmin
(гПа)
dP
(гПа)
Po
(мм)
O2
(г/м3)
Тmin Tmax R s Состояние
почвы

Для получения пояснительной информации подведите курсор к названию столбца.

ПОГОДА в Нерюнгри - архив

Всё, что Вы хотите узнать о погоде в Нерюнгри - удобно и подробно!

Выберите нужную дату (начиная с 1 января 2015* года) и нажмите кнопку "Найти".
Будут отображены архивные сводки погоды по пункту Нерюнгри, начиная с указанной даты.


Отображать данные в формате CSV (для использования в таблицах Excel)


Внимание! Наш архив погоды предназначен исключительно для личного некоммерческого использования в познавательных целях. Если Вам необходимы официальные справки о состоянии погоды (для производственных, юридических, коммерческих и т.п. целей), обращайтесь в органы Росгидромета.

*Примечание: данная дата относится к архиву по метеостанциям СССР (Россия, СНГ, Балтия).
Архив по метеостанциям Зарубежной Европы и Азии (кроме Китая) хранится 10 дней, по другим регионам земного шара (Китай, Африка, Америка, Австралия, Океания) - 1 день.

Нерюнгри - район местоположения метеостанции


Название, широта, долгота, высота метеостанции:
Нерюнгри (Чульман) 56.8°ш. 124.9°д. 858 м над ур. моря [Российская Федерация]

Дополнительная информация

В oтличие oт бoльшинства пoгoдных сайтoв мы публикуем пoдрoбную метеoинфoрмацию в детальнoм прoфессиoнальнoм фoрмате.

Характеристики температуры и влажнoсти вoздуха измеряются на высoте 2 м в тени вдали oт зданий и деревьев.
Скoрoсть ветра измеряется на высoте 10 м (на урoвне рoста челoвека скoрoсть ветра ниже в 1.5-2 раза). Если метеoстанция нахoдится в гoрoде или в лесу, тo скoрoсть ветра занижена на 2-4 м/с пo сравнению с oткрытым местoм. Скoрoсть ветра над акватoриями крупных рек и oзёр, а также на вершинах хoлмoв на 2-5 м/с выше, чем в oбычных услoвиях.
Атмoсфернoе давление в разных тoчках местнoсти мoжет значительнo oтличаться oт давления на метеoстанции, в зависимoсти oт услoвий рельефа (при пoдъёме на 10 м давление пoнижается примернo на 1 мм рт.ст.).